Location: Unspecified
(41.1850°N, 73.2650°W)
Time: 22:44:37
(UTC+00:00)

USA 81 - Visible Passes

Search period start: 13 March 2026 00:00
Search period end: 23 March 2026 00:00
Orbit: 782 x 786 km, 85.0° (Epoch: 13 March)

Date Brightness Start Highest point End Pass type
(mag) Time Alt. Az. Time Alt. Az. Time Alt. Az.
15 Mar 6.7 02:51:09 13° NNW 02:51:09 13° NNW 02:51:48 10° N visible
16 Mar 6.3 02:19:01 17° N 02:19:01 17° N 02:20:14 10° N visible
17 Mar 5.9 01:46:51 20° NNE 01:46:51 20° NNE 01:48:25 10° NNE visible
17 Mar 7.0 03:27:24 11° NW 03:27:24 11° NW 03:27:48 10° NW visible
18 Mar 5.8 01:14:37 19° NNE 01:14:37 19° NNE 01:16:20 10° NNE visible
18 Mar 6.5 02:55:10 18° NW 02:55:10 18° NW 02:57:01 10° NNW visible
19 Mar 5.8 00:42:19 16° NE 00:42:19 16° NE 00:43:53 10° NE visible
19 Mar 5.7 02:22:52 29° NNW 02:22:52 29° NNW 02:25:44 10° N visible
20 Mar 6.0 00:09:57 11° ENE 00:09:57 11° ENE 00:10:27 10° ENE visible
20 Mar 4.8 01:50:29 45° N 01:50:29 45° N 01:54:08 10° N visible
21 Mar 4.3 01:18:00 53° NE 01:18:00 53° NE 01:22:18 10° NNE visible
21 Mar 6.5 02:58:32 16° WNW 02:58:35 16° WNW 03:01:46 10° NW visible
22 Mar 4.6 00:45:22 35° E 00:45:29 35° E 00:50:13 10° NNE visible
22 Mar 5.8 02:25:54 26° W 02:26:31 27° WNW 02:30:58 10° NNW visible
